Regional Weather Roundup
Issued by NWS

Home | Current Version | Previous Version | Text Only | Print | Product List | Glossary Off
Versions: 1 2 3 4 5 6 7 8 9 10 11 12 13 14 15 16 17 18 19 20 21 22 23 24 25 26 27 28 29 30 31 32 33 34 35 36 37 38 39 40 41 42 43 44 45 46 47 48 49 50

000
ASUS44 KMEG 280910
RWRTN
TENNESSEE HOURLY STATE WEATHER ROUNDUP
NATIONAL WEATHER SERVICE MEMPHIS TN
300 AM CST FRI NOV 28 2014

TNZ002-004-019-021-049-052-054-088>092-281000-
WEST TENNESSEE

CITY           SKY/WX    TMP DP  RH WIND       PRES   REMARKS
MEMPHIS INTL   PTCLDY    32  25  75 SE6       30.43S WCI  26
NWS MEMPHIS      N/A     29 N/A N/A MISG        N/A
JACKSON        CLEAR     26  21  81 CALM      30.43F
DYERSBURG      CLEAR     28  14  54 SE5       30.44F WCI  23
UNION CITY     CLEAR     23  21  93 CALM      30.42F
PARIS          CLEAR     21  19  93 S6        30.43F WCI  14
HUNTINGDON     CLEAR     21  19  92 CALM      30.44S
LEXINGTON      CLEAR     21  19  93 CALM      30.44R
SAVANNAH       CLEAR     23  21  93 CALM      30.44F
$$

TNZ008-025-027-028-033-062-065-066-281000-
NORTH MIDDLE TENNESSEE

CITY           SKY/WX    TMP DP  RH WIND       PRES   REMARKS
NASHVILLE      MOCLDY    25  21  85 CALM      30.45S
CLARKSVILLE    MOCLDY    26  24  92 SE5       30.44F WCI  20
COOKEVILLE     MOCLDY    27  21  80 NW3       30.40S
CROSSVILLE     CLEAR     24  16  71 CALM      30.35F
$$

TNZ061-075-076-078-094-096-097-281000-
SOUTH MIDDLE TENNESSEE

CITY           SKY/WX    TMP DP  RH WIND       PRES   REMARKS
FAYETTEVILLE   CLEAR     23  18  80 N13G31    30.42S WCI  11
TULLAHOMA      CLEAR     19  18  93 CALM      30.41F
WINCHESTER     CLEAR     21  19  93 CALM      30.42S
MCMINNVILLE    CLEAR     21  18  86 CALM      30.41S
COLUMBIA       CLEAR     21  21 100 CALM      30.42F
SHELBYVILLE    CLEAR     21  19  93 CALM      30.44F
$$

TNZ017-018-042-046-047-281000-
NORTHEAST TENNESSEE

CITY           SKY/WX    TMP DP  RH WIND       PRES   REMARKS
TRI CITIES     CLOUDY    28  22  78 SW5       30.34S WCI  23
ELIZABETHTON   CLOUDY    27  19  74 CALM      30.33S
$$

TNZ012-013-036-069-073-074-281000-
CENTRAL EAST TENNESSEE

CITY           SKY/WX    TMP DP  RH WIND       PRES   REMARKS
KNOXVILLE      PTCLDY    27  21  78 W5        30.38F WCI  22
OAK RIDGE      MOCLDY    30  20  66 CALM      30.40F
GATLINBURG     MOSUNNY   27  19  74 CALM      30.37F
MORRISTOWN     CLOUDY    28  21  74 N6        30.35F WCI  22
$$

TNZ083-085-099-281000-
SOUTHEAST TENNESSEE

CITY           SKY/WX    TMP DP  RH WIND       PRES   REMARKS
CHATTANOOGA    PTCLDY    30  20  66 N5        30.42F WCI  25
$$

SKY/WX REPORTED AS FAIR MEANS FEW OR NO CLOUDS BELOW
12 THOUSAND FEET.




USA.gov is the U.S. government's official web portal to all federal, state and local government web resources and services.